Location: Madrid
(40.4000°N, 3.6830°W)
Time: 12:44:00
(UTC+01:00)

ISS - Pass Details

Date: 23 October 2020
Orbit: 417 x 420 km, 51.6° (Epoch: 29 October)

Event Time Altitude Azimuth Distance (km) Brightness Sun altitude
Exits shadow 06:49:35 13° 177° (S) 1,321 -1.2 -20.6°
Maximum altitude 06:51:37 21° 133° (SE) 992 -1.4 -20.3°
Drops below altitude 10° 06:54:14 10° 81° (E) 1,493 0.2 -19.8°
Sets 06:56:39 0° 65° (ENE) 2,360 1.3 -19.3°
